GSAT-11

Last updated on Sept. 19, 2020, 5:46 a.m. UTC

1 43824U 18100B   20262.57309510 -.00000091  00000-0  00000+0 0  9993
2 43824   0.0604 264.0070 0007400 223.4904 150.7529  1.00271057  6599
UTC
Height (km)
Latitude
Longitude
Inclination
Orbital Period
UTC large
Height (km)
Speed (km/s)
/
Latitude / Longitude
Inclination (degrees)
Orbital Period (minutes)
Azimuth
Elevation
Range (km)
Doppler Factor
iOS Compass Heading
iOS Angle

Next 30 passes for location: Hong Kong

Rise time Rise Azimuth (degrees) Set time Set Azimuth (degrees) Duration Max altitude (degrees)

No matching passes for this satellites